DW7857 Weather Reports


time (UTC)temp
C
wind
direction
speed
KPH
gust
KPH
rain 1hr
cm
rain 24hr
cm
rain mn
cm
humidity
%
barometer
mb
20260831203603 14 349 3.2 4.8 0.00 0.03 0.03 72 1015.1
20260831202703 15 45 3.2 3.2 0.00 0.03 0.03 71 1014.9
20260831201803 15 45 3.2 3.2 0.00 0.03 0.03 71 1014.9
20260831200903 15 342 3.2 3.2 0.00 0.03 0.03 71 1014.9
20260831200003 15 315 3.2 3.2 0.00 0.03 0.03 70 1014.5
20260831195618 15 315 3.2 3.2 0.00 0.03 0.03 70 1014.5
20260831194503 15 300 6.4 8.0 0.00 0.03 0.03 70 1014.8
20260831193603 15 317 6.4 8.0 0.00 0.03 0.03 70 1014.4
20260831192703 15 313 8.0 12.9 0.00 0.03 0.03 70 1014.6
20260831191803 16 268 4.8 6.4 0.00 0.03 0.03 70 1014.6
20260831190903 16 353 3.2 4.8 0.00 0.03 0.03 69 1014.2
20260831190003 16 332 6.4 6.4 0.00 0.30 0.03 68 1014.0
20260831185403 16 317 8.0 9.7 0.00 0.36 0.03 67 1014.2
20260831184503 16 300 9.7 11.3 0.00 0.36 0.03 65 1014.0
20260831183603 16 306 8.0 11.3 0.00 0.36 0.03 65 1014.1
20260831182703 17 330 4.8 6.4 0.00 0.36 0.03 64 1013.8
20260831181803 17 289 6.4 11.3 0.00 0.36 0.03 59 1013.8
20260831180903 17 329 9.7 12.9 0.00 0.36 0.03 58 1014.0
20260831180003 18 328 11.3 14.5 0.00 0.36 0.03 55 1013.7
20260831175617 18 321 9.7 12.9 0.00 0.36 0.03 54 1013.5
20260831174503 18 315 8.0 12.9 0.00 0.36 0.03 54 1013.6
20260831173603 18 329 9.7 14.5 0.00 0.36 0.03 53 1013.7
20260831172703 18 291 11.3 17.7 0.00 0.36 0.03 53 1013.6
20260831171803 18 301 11.3 17.7 0.00 0.36 0.03 52 1013.5
20260831171118 18 307 14.5 17.7 0.00 0.36 0.03 52 1013.1
20260831170218 18 321 14.5 19.3 0.00 0.36 0.03 50 1013.3
20260831165403 19 301 16.1 22.5 0.00 0.36 0.03 50 1013.5
20260831164503 19 296 16.1 24.1 0.00 0.36 0.03 51 1013.3
20260831163603 19 304 14.5 19.3 0.00 0.36 0.03 51 1013.3
20260831162703 20 327 14.5 20.9 0.00 0.36 0.03 53 1013.1
20260831161803 19 305 16.1 17.7 0.00 0.36 0.03 54 1013.1
20260831160903 19 328 14.5 17.7 0.00 0.36 0.03 52 1012.9
20260831160003 19 319 16.1 19.3 0.00 0.36 0.03 52 1012.9
20260831155403 19 314 14.5 17.7 0.00 0.36 0.03 51 1012.9
20260831154503 20 320 16.1 20.9 0.00 0.36 0.03 51 1012.6
20260831153603 20 279 17.7 24.1 0.00 0.36 0.03 50 1012.6
20260831152703 20 327 19.3 24.1 0.00 0.36 0.03 50 1012.4
20260831151803 20 283 14.5 20.9 0.00 0.36 0.03 51 1012.6
20260831150903 20 296 16.1 25.7 0.00 0.36 0.03 50 1012.3
20260831150003 20 312 14.5 19.3 0.00 0.36 0.03 51 1012.3
20260831145403 20 327 16.1 24.1 0.00 0.36 0.03 52 1012.2
20260831144503 20 311 16.1 17.7 0.00 0.36 0.03 56 1012.2
20260831143603 20 300 16.1 24.1 0.00 0.36 0.03 58 1011.9
20260831142703 20 327 14.5 24.1 0.00 0.36 0.03 61 1012.0
20260831141803 19 306 12.9 20.9 0.00 0.36 0.03 65 1011.9
20260831140903 19 301 16.1 22.5 0.00 0.36 0.03 66 1012.0
20260831140003 18 331 12.9 22.5 0.00 0.36 0.03 67 1012.0
20260831135403 18 323 16.1 22.5 0.00 0.36 0.03 64 1012.0
20260831134717 19 294 12.9 17.7 0.00 0.38 0.03 61 1012.2
20260831133603 21 319 11.3 14.5 0.00 0.38 0.03 59 1011.6
20260831132703 20 334 12.9 17.7 0.00 0.38 0.03 58 1011.6
20260831132017 20 315 12.9 17.7 0.00 0.38 0.03 57 1011.6
20260831130903 20 339 14.5 22.5 0.00 0.38 0.03 56 1011.6
20260831130003 20 319 14.5 17.7 0.00 0.38 0.03 55 1011.4
20260831125403 20 322 12.9 17.7 0.00 0.38 0.03 55 1011.2
20260831124503 20 357 11.3 12.9 0.00 0.38 0.03 59 1010.9
20260831123816 20 342 12.9 19.3 0.00 0.38 0.03 60 1011.0
20260831122703 20 330 16.1 24.1 0.00 0.38 0.03 57 1011.0
20260831121803 21 311 16.1 22.5 0.00 0.38 0.03 54 1010.6
20260831120903 21 312 11.3 16.1 0.00 0.38 0.03 60 1010.5
20260831120003 20 323 11.3 16.1 0.00 0.38 0.03 62 1010.5
20260831115403 20 315 14.5 17.7 0.00 0.38 0.03 62 1010.5
20260831114503 20 327 14.5 17.7 0.00 0.38 0.03 61 1010.4
20260831113603 21 320 11.3 19.3 0.00 0.38 0.03 60 1010.3
20260831112703 20 320 16.1 22.5 0.00 0.38 0.03 62 1010.0
20260831111803 20 323 12.9 17.7 0.00 0.43 0.03 61 1010.1
20260831110903 20 293 14.5 17.7 0.00 0.43 0.03 61 1009.8
20260831110003 20 310 16.1 19.3 0.00 0.56 0.03 62 1009.8
20260831105403 20 343 16.1 22.5 0.00 0.56 0.03 61 1009.6
20260831104503 20 326 12.9 17.7 0.00 0.56 0.03 63 1009.4
20260831103603 20 303 14.5 17.7 0.00 0.56 0.03 65 1009.6
20260831102703 20 332 14.5 17.7 0.00 0.56 0.03 66 1009.4
20260831101803 18 319 16.1 22.5 0.00 0.56 0.03 70 1009.2
20260831100903 18 317 11.3 16.1 0.00 0.56 0.03 68 1009.3
20260831100217 18 289 11.3 14.5 0.00 0.56 0.03 66 1008.9
20260831095403 19 297 11.3 14.5 0.00 0.56 0.03 65 1008.9
20260831094503 20 311 11.3 16.1 0.00 0.56 0.03 64 1008.5
20260831093603 20 349 12.9 16.1 0.00 0.56 0.03 63 1008.6
20260831092703 20 322 14.5 17.7 0.00 0.56 0.03 65 1008.2
20260831091803 19 316 12.9 16.1 0.00 0.56 0.03 66 1008.2
20260831091117 19 312 12.9 17.7 0.00 0.56 0.03 68 1008.1
20260831090003 18 300 11.3 14.5 0.00 0.56 0.03 69 1007.9
20260831085403 19 331 14.5 25.7 0.00 0.56 0.03 70 1007.6
20260831084503 18 302 14.5 25.7 0.00 0.56 0.03 70 1007.7
20260831083603 18 306 14.5 24.1 0.00 0.56 0.03 70 1007.6
20260831082703 18 307 14.5 17.7 0.00 0.56 0.03 71 1007.4
20260831082017 18 312 17.7 22.5 0.00 0.56 0.03 72 1007.3